Regional Weather Roundup
Issued by NWS

Home | Current Version | Previous Version | Text Only | Print | Product List | Glossary On
Versions: 1 2 3 4 5 6 7 8 9 10 11 12 13 14 15 16 17 18 19 20 21 22 23 24 25 26 27 28 29 30 31 32 33 34 35 36 37 38 39 40 41 42 43 44 45 46 47 48 49 50
000
ASUS43 KLMK 171110
RWRKY
KENTUCKY REGIONAL WEATHER ROUNDUP
NATIONAL WEATHER SERVICE LOUISVILLE KY
700 AM EDT WED SEP 17 2014

NOTE "FAIR" INDICATES FEW OR NO CLOUDS BELOW 12,000 FEET
WITH NO SIGNIFICANT WEATHER AND/OR OBSTRUCTIONS TO VISIBILITY.

KYZ001>023-026-027-061>063-070>075-171200-
WESTERN AND SOUTH CENTRAL KENTUCKY

CITY           SKY/WX    TMP DP  RH WIND       PRES   REMARKS
PADUCAH        FOG       47  45  93 CALM      30.05S VSB 3/4
HENDERSON      CLOUDY    46  45  93 CALM      30.07S VSB 1/4
OWENSBORO      MOCLDY    48  46  93 CALM      30.07S FOG
HOPKINSVILLE   CLEAR     48  48 100 N1        30.04F FOG
BOWLING GREEN  CLOUDY    54  52  93 E6        30.06S FOG
GLASGOW        CLOUDY    53  53 100 CALM      30.05S FOG
$$

KYZ024-025-028>034-038-045-046-053-171200-
NORTH CENTRAL KENTUCKY

CITY           SKY/WX    TMP DP  RH WIND       PRES   REMARKS
LOUISVILLE/SDF CLOUDY    55  53  93 N3        30.07R
LOUISVILLE/LOU CLOUDY    53  51  93 CALM      30.08R
FORT KNOX      FOG       48  46  93 N2        30.06R VSB 1/4
$$

KYZ035>037-039>044-047>052-055>060-089>105-171200-
NORTHEAST KENTUCKY

CITY           SKY/WX    TMP DP  RH WIND       PRES   REMARKS
LEXINGTON      CLEAR     54  48  80 E5        30.06F
COVINGTON      MOCLDY    52  48  86 CALM      30.07S
FRANKFORT      FOG       45  45 100 NW3       30.06S VSB 1/4
$$

KYZ054-064>069-076>088-106>120-171200-
SOUTHEAST KENTUCKY

CITY           SKY/WX    TMP DP  RH WIND       PRES   REMARKS
JACKSON        CLOUDY    54  52  93 CALM      30.06S
LONDON         CLOUDY    58  54  86 N5        30.06S
SOMERSET       NOT AVBL
MIDDLESBORO    PTCLDY    55  54  97 CALM      30.05S
MONTICELLO     PTSUNNY   57  55  93 CALM      30.07S
$$




USA.gov is the U.S. government's official web portal to all federal, state and local government web resources and services.